#timestamp,LO_Frequency,Hit,StdDev 
1652886015.1,286047000.6,N
1652886016.0,286047000.6,N
1652886035.8,286046997.1,N
1652886055.6,286046994.4,N
1652886075.5,286046995.4,N
1652886095.3,286046994.0,N
1652886115.2,286046992.1,N
1652886135.9,286046991.7,N
1652886155.7,286046993.3,N
1652886175.6,286046994.5,N
1652886195.4,286046992.2,N
1652886215.2,286046996.4,N
1652886235.1,286046997.4,N
1652886236.0,286046997.4,N
1652886255.8,286046995.4,N
1652886275.7,286046995.6,N
1652886295.5,286046997.1,N
1652886315.3,286046996.9,N
1652886335.2,286046999.2,N
1652886355.9,286046998.4,N
1652886375.7,286046999.4,N
1652886395.6,286046997.5,N
1652886415.4,286046999.4,N
1652886435.3,286046997.8,N
1652886455.1,286046996.2,N
1652886456.0,286046996.2,N
1652886475.8,286046995.3,N
1652886495.7,286046999.4,N
1652886515.5,286046998.1,N
1652886535.3,286047002.4,N
1652886555.2,286046999.7,N
1652886575.0,286046999.9,N
1652886575.9,286046999.9,N
1652886595.8,286047001.0,N
1652886615.6,286047000.9,N
1652886635.4,286047000.5,N
1652886655.3,286047000.7,N
1652886675.1,286046999.8,N
1652886695.9,286047002.4,N
1652886715.7,286047004.1,N
1652886735.5,286047005.7,N
1652886755.4,286047006.8,N
1652886775.2,286047006.4,N
1652886795.0,286047007.5,N
1652886796.0,286047007.5,N
1652886815.8,286047006.9,N
1652886835.6,286047008.8,N
1652886855.5,286047008.5,N
1652886875.3,286047008.9,N
1652886895.1,286047006.4,N
1652886915.9,286047004.5,N
1652886935.7,286047005.2,N
1652886955.6,286047006.9,N
1652886975.4,286047006.1,N
1652886995.2,286047007.9,N
1652887015.1,286047006.7,N
1652887016.0,286047006.7,N
1652887035.8,286047007.1,N
1652887055.7,286047005.8,N
1652887075.5,286047005.9,N
1652887095.3,286047005.8,N
1652887115.2,286047006.0,N
1652887135.9,286047002.8,N
1652887155.7,286047004.4,N
1652887175.6,286046998.2,N
1652887195.4,286046998.9,N
1652887215.3,286046999.3,N
1652887235.1,286046996.1,N
1652887236.0,286046996.1,N
1652887255.8,286047000.3,N
1652887275.7,286047004.3,N
1652887295.5,286047001.1,N
1652887315.3,286046999.7,N
1652887335.2,286047000.7,N
1652887355.0,286047000.2,N
1652887355.9,286047000.2,N
1652887375.8,286047000.9,N
1652887395.6,286047000.9,N
1652887415.4,286047000.0,N
1652887435.3,286046999.3,N
1652887455.1,286046996.7,N
1652887475.8,286046997.5,N
1652887495.7,286046997.7,N
1652887515.5,286046999.4,N
1652887535.4,286047000.2,N
1652887555.2,286047000.3,N
1652887575.0,286047000.8,N
1652887575.9,286047000.8,N
1652887595.8,286047001.0,N
1652887615.6,286046998.4,N
1652887635.4,286046994.9,N
1652887655.3,286046993.8,N
1652887675.1,286046992.2,Y
1652887695.9,286046993.7,P
1652887715.7,286046998.9,N
1652887735.5,286047004.1,N
1652887755.4,286047001.8,N
1652887775.2,286046998.2,N
1652887795.0,286046997.1,N
1652887795.9,286046997.1,N
1652887815.8,286047000.6,N
1652887835.6,286047005.1,N
1652887855.5,286047006.6,N
1652887875.3,286047005.0,N
1652887895.1,286047007.3,N
1652887915.9,286047004.9,N
1652887935.7,286047012.2,Y
1652887955.5,286047011.6,P
1652887975.4,286047008.1,N
1652887995.2,286047006.9,N
1652888015.1,286047010.4,N
1652888016.0,286047010.4,N
1652888035.8,286047012.1,Y
1652888055.6,286047003.9,P
1652888075.5,286047005.2,N
1652888095.3,286047005.1,N
1652888115.1,286047006.3,Y
1652888135.9,286047001.8,P
1652888155.7,286047001.6,N
1652888175.6,286047006.3,P
1652888195.4,286047008.0,Y
1652888215.2,286047006.6,P
1652888235.1,286047008.0,P
1652888236.0,286047008.0,P
1652888255.8,286047012.1,Y
1652888275.7,286047005.1,P
1652888295.5,286047004.8,P
1652888315.3,286047006.4,P
1652888335.2,286047007.9,Y
1652888355.9,286047003.1,P
1652888375.7,286047006.3,P
1652888395.6,286047006.7,P
1652888415.4,286047011.2,Y
1652888435.3,286047006.5,P
1652888455.1,286047006.6,P
1652888456.0,286047006.6,P
1652888475.8,286047008.8,Y
1652888495.7,286047000.7,P
1652888515.5,286047000.8,N
1652888535.3,286047003.1,N
1652888555.2,286047003.2,N
1652888575.0,286047002.6,N
1652888575.9,286047002.6,N
1652888595.8,286046998.1,N
1652888615.6,286046999.7,N
1652888635.4,286047001.8,N
1652888655.3,286047004.8,N
1652888675.1,286047010.6,Y
1652888695.8,286047002.0,P
1652888715.7,286046997.2,P
1652888735.5,286046991.8,P
1652888755.4,286046989.4,N
1652888775.2,286046986.6,N
1652888795.0,286046986.8,N
1652888795.9,286046986.8,N
1652888815.8,286046980.9,Y
1652888835.6,286046987.7,P
1652888855.4,286046982.8,P
1652888875.3,286046981.2,P
1652888895.1,286046981.5,Y
1652888915.9,286046995.9,P
1652888935.7,286046999.3,N
1652888955.5,286046997.8,N
1652888975.4,286046997.5,N
1652888995.2,286046998.3,N
1652889015.1,286046996.8,N
1652889016.0,286046996.8,N
1652889035.8,286047000.6,N
1652889055.6,286047000.7,N
1652889075.5,286046998.5,N
1652889095.3,286047000.1,N
1652889115.1,286047003.3,N
1652889135.9,286047005.0,N
1652889155.7,286047007.0,N
1652889175.5,286047007.2,N
1652889195.4,286047006.3,N
1652889215.2,286047008.0,N
1652889235.1,286047011.3,N
1652889236.0,286047011.3,N
1652889255.8,286047011.3,N
1652889275.6,286047013.6,N
1652889295.5,286047016.9,N
1652889315.3,286047015.2,N
1652889335.1,286047014.8,N
1652889355.9,286047013.7,N
1652889375.7,286047006.3,N
1652889395.6,286047007.1,N
1652889415.4,286047004.9,N
1652889435.2,286047004.6,N
1652889455.1,286047004.9,N
1652889456.0,286047004.9,N
1652889475.8,286047008.1,N
1652889495.7,286047010.6,N
1652889515.5,286047007.7,N
1652889535.4,286047012.1,N
1652889555.2,286047006.6,N
1652889575.0,286047006.5,N
1652889575.9,286047006.5,N
1652889595.8,286047011.9,N
